TimeEDT,TemperatureF,Dew PointF,Humidity,Sea Level PressureIn,VisibilityMPH,Wind Direction,Wind SpeedMPH,Gust SpeedMPH,PrecipitationIn,Events,Conditions,WindDirDegrees,DateUTC
12:53 AM,82.9,75.0,77,29.95,10.0,East,11.5,-,N/A,,Clear,100,2013-09-15 04:53:00
1:53 AM,82.9,75.0,77,29.94,10.0,East,8.1,-,N/A,,Partly Cloudy,90,2013-09-15 05:53:00
2:53 AM,82.9,75.0,77,29.92,10.0,East,10.4,-,N/A,,Partly Cloudy,100,2013-09-15 06:53:00
3:53 AM,82.0,75.9,82,29.91,10.0,ENE,3.5,-,N/A,,Partly Cloudy,70,2013-09-15 07:53:00
4:53 AM,82.0,77.0,85,29.91,10.0,ENE,4.6,-,0.00,,Clear,70,2013-09-15 08:53:00
5:53 AM,82.0,77.0,85,29.92,10.0,ENE,4.6,-,N/A,,Partly Cloudy,70,2013-09-15 09:53:00
6:53 AM,82.9,77.0,82,29.94,10.0,East,9.2,-,N/A,,Scattered Clouds,90,2013-09-15 10:53:00
7:53 AM,82.9,77.0,82,29.96,10.0,East,11.5,-,N/A,,Partly Cloudy,90,2013-09-15 11:53:00
8:53 AM,84.0,77.0,79,29.97,10.0,East,9.2,-,N/A,,Partly Cloudy,100,2013-09-15 12:53:00
9:53 AM,84.9,77.0,77,29.99,10.0,East,13.8,-,N/A,,Scattered Clouds,100,2013-09-15 13:53:00
10:53 AM,84.9,77.0,77,30.01,10.0,ESE,10.4,-,N/A,,Scattered Clouds,110,2013-09-15 14:53:00
11:53 AM,86.0,78.1,77,30.00,10.0,ESE,9.2,-,N/A,,Partly Cloudy,120,2013-09-15 15:53:00
12:53 PM,87.1,79.0,77,30.00,10.0,ESE,10.4,-,N/A,,Clear,110,2013-09-15 16:53:00
1:53 PM,87.1,78.1,74,29.97,10.0,SE,10.4,-,N/A,,Partly Cloudy,130,2013-09-15 17:53:00
2:53 PM,75.9,72.0,87,29.97,2.5,NE,13.8,34.5,0.04,Rain,Heavy Rain,50,2013-09-15 18:53:00
2:59 PM,77.0,73.4,89,29.98,8.0,NE,15.0,29.9,0.04,Rain,Light Rain,50,2013-09-15 18:59:00
3:15 PM,75.2,71.6,89,30.04,8.0,SSE,20.7,26.5,0.15,Rain,Heavy Rain,150,2013-09-15 19:15:00
3:22 PM,75.2,73.4,94,30.03,1.5,ESE,13.8,27.6,0.22,Rain,Heavy Rain,120,2013-09-15 19:22:00
3:26 PM,75.2,73.4,94,30.02,1.0,ESE,18.4,31.1,0.33,Rain,Heavy Rain,120,2013-09-15 19:26:00
3:35 PM,73.4,71.6,94,30.01,1.5,ESE,16.1,25.3,0.47,Rain,Heavy Rain,120,2013-09-15 19:35:00
3:48 PM,73.4,71.6,94,30.00,1.2,SE,10.4,23.0,0.62,Rain,Heavy Rain,140,2013-09-15 19:48:00
3:53 PM,73.9,71.1,91,30.01,1.5,SSE,9.2,-,0.69,Rain,Heavy Rain,150,2013-09-15 19:53:00
3:59 PM,73.4,71.6,94,30.01,3.0,SE,9.2,-,0.02,Rain,Rain,140,2013-09-15 19:59:00
4:53 PM,75.0,72.0,90,30.01,8.0,NNE,13.8,-,0.07,Rain,Light Rain,20,2013-09-15 20:53:00
5:53 PM,75.0,72.0,90,30.00,10.0,NNE,8.1,-,0.02,,Partly Cloudy,30,2013-09-15 21:53:00
6:53 PM,77.0,72.0,84,30.01,10.0,Calm,Calm,-,N/A,,Clear,0,2013-09-15 22:53:00
7:53 PM,77.0,73.0,88,29.97,10.0,North,6.9,-,N/A,,Clear,10,2013-09-15 23:53:00
8:53 PM,79.0,73.9,84,29.97,10.0,NE,8.1,-,N/A,,Clear,40,2013-09-16 00:53:00
9:53 PM,79.0,75.0,88,30.01,10.0,ENE,5.8,-,N/A,,Clear,70,2013-09-16 01:53:00
10:53 PM,80.1,75.9,87,30.02,10.0,NE,6.9,-,N/A,,Clear,40,2013-09-16 02:53:00
11:53 PM,81.0,78.1,91,30.02,10.0,NE,9.2,-,N/A,,Clear,50,2013-09-16 03:53:00